Hourly Data Report for April 28, 2018

MIRAMICHI RCS
NEW BRUNSWICK
Current Station Operator: ECCC - MSC

47°00'34.000" N
65°27'54.000" W
33.00 m
8100989
71744
ACQ

Download Data

Hourly Data (April 2018)
Hourly Data Report for April 28, 2018
TIME
LST
Temp Definition
°C
Dew Point Definition
°C
Rel Hum Definition
%
Precip. Amount Definition
mm

Wind Dir Definition
10's deg

Wind Spd Definition
km/h
Visibility Definition
km
Stn Press Definition
kPa
Hmdx Definition


Wind Chill Definition


Weather Definition


00:00 9.2 7.1 87 0.5 19 11   100.74     LegendNANA
01:00 8.3 7.4 94 1.7 17 7   100.66     LegendNANA
02:00 7.9 7.2 95 1.8 21 10   100.69     LegendNANA
03:00 7.4 6.8 96 0.0 12 2   100.63     LegendNANA
04:00 6.7 6.0 96 0.0 10 10   100.52     LegendNANA
05:00 6.6 6.1 96 0.2 10 7   100.52     LegendNANA
06:00 7.2 6.8 98 0.0 6 4   100.48     LegendNANA
07:00 7.1 6.7 97 0.0 8 8   100.43     LegendNANA
08:00 7.2 6.9 98 0.0 11 6   100.49     LegendNANA
09:00 7.7 7.4 98 0.0 9 4   100.44     LegendNANA
10:00 8.7 8.2 97 0.2 7 3   100.43     LegendNANA
11:00 9.3 8.8 97 0.0 11 3   100.43     LegendNANA
12:00 10.4 9.7 96 0.0 21 5   100.40     LegendNANA
13:00 11.3 10.6 96 0.0 20 11   100.41     LegendNANA
14:00 12.7 12.1 96 0.0 17 7   100.42     LegendNANA
15:00 12.2 11.3 94 0.0 30 6   100.43     LegendNANA
16:00 14.2 11.3 83 0.0 25 14   100.43     LegendNANA
17:00 14.2 10.6 79 0.0 26 14   100.51     LegendNANA
18:00 14.0 10.0 77 0.0 25 14   100.56     LegendNANA
19:00 13.2 9.4 78 0.0 26 12   100.66     LegendNANA
20:00 11.1 8.0 81 0.0 28 11   100.76     LegendNANA
21:00 8.4 6.7 89 0.0 14 2   100.77     LegendNANA
22:00 6.4 5.0 91 0.0 21 6   100.79     LegendNANA
23:00 5.6 4.5 92 0.0 24 2   100.87     LegendNANA

Notes on Data Quality.

Legend

  • E = Estimated
  • M = Missing
  • NA = Not Available*
  • [empty] = Indicates an unobserved value
Date modified: